Wind_Speed
28 33 35 38 46 54 52 59 59 65 67 70 75 77 75 74 73 73 74 72 70 68 70 72 76 78 80 82 83 84 86 83
35 42 46 48 52 48 51 53 59 63 66 65 62 62 64 65 64 62 61 62 66 69 72 74 77 80 80 80 81 80 82 80
36 39 42 45 45 48 45 47 50 53 53 54 53 53 51 51 51 55 59 63 67 68 71 72 73 74 74 73 71 68 70 70
38 40 40 40 42 44 43 42 42 43 43 42 41 41 44 49 53 56 59 62 64 66 66 68 70 72 72 72 72 71 70 75
39 39 36 34 33 31 34 35 34 33 34 37 40 42 44 46 48 52 54 58 63 66 67 69 70 73 74 74 74 76 78 79
33 30 30 28 28 28 27 26 29 32 33 35 38 40 42 46 51 54 59 60 63 66 67 69 72 74 74 77 78 79 83 86
29 26 23 24 24 23 24 27 29 31 36 41 44 47 50 53 58 63 67 70 69 68 70 73 75 76 77 78 82 86 90 94
24 24 24 22 23 24 27 30 33 37 42 46 48 53 56 60 64 69 72 75 73 74 75 76 77 80 83 87 93 96 101 104
25 23 22 24 26 29 32 36 40 44 47 52 53 58 63 67 71 74 77 79 78 78 79 79 82 86 92 97 101 105 110 113
23 23 26 29 32 36 39 41 47 51 53 57 59 63 68 73 76 79 82 84 82 81 82 84 88 95 99 103 109 111 112 109
25 28 32 35 40 44 47 49 53 57 58 61 66 70 76 80 82 84 86 84 82 84 86 90 96 102 106 109 111 109 107 108
29 33 37 39 44 48 50 50 55 61 64 68 72 78 80 84 86 88 85 83 85 88 93 97 103 106 110 109 107 104 105 110
36 41 44 46 48 50 50 52 59 66 71 75 78 80 84 87 88 84 82 85 89 94 99 102 106 109 108 107 107 108 107 109
38 41 47 51 51 52 53 59 65 70 76 78 80 84 88 87 83 84 86 90 94 99 103 104 107 105 102 105 108 111 109 107
45 44 46 50 52 54 59 63 69 72 75 81 84 89 86 84 84 87 93 97 99 102 105 106 104 102 103 104 107 109 105 103
50 52 51 51 56 61 65 66 68 75 80 85 91 90 87 85 88 94 99 101 105 105 105 101 104 105 107 102 103 103 100 97
53 56 58 60 64 66 65 71 74 78 84 90 91 89 89 90 94 101 104 108 107 105 101 103 107 109 111 105 100 97 95 89
56 59 64 67 67 67 72 77 81 83 89 93 91 90 91 96 102 106 109 110 108 103 105 106 107 110 105 98 96 95 90 85
59 63 66 70 73 75 79 83 85 90 95 93 93 93 96 101 105 109 111 108 104 103 105 108 103 98 100 98 91 90 86 81
Wind_Direction
247 256 250 252 250 246 252 251 255 260 262 265 268 270 273 279 281 281 283 284 286 287 289 290 289 289 289 290 291 292 293 294
247 252 254 253 254 259 262 260 265 266 266 270 274 276 277 280 282 283 285 287 287 287 287 288 291 293 294 295 296 296 296 297
250 251 253 254 255 260 261 265 268 270 271 275 278 280 281 281 283 285 288 289 291 293 294 295 296 297 297 297 297 295 294 293
262 262 264 264 264 265 266 268 270 272 273 275 277 283 291 293 294 294 295 295 293 294 297 301 302 301 300 299 299 298 296 297
265 264 267 269 269 269 270 268 269 272 282 291 294 295 299 301 301 303 304 306 306 305 303 302 304 307 305 301 298 297 295 294
270 272 267 263 261 260 265 279 290 294 298 302 301 302 305 303 308 311 310 309 309 308 307 306 304 299 298 299 299 298 298 298
269 264 259 258 263 273 286 292 300 302 303 305 305 305 307 310 313 315 316 316 313 310 309 306 304 303 302 302 302 301 300 298
263 259 261 268 280 289 294 297 301 302 306 307 306 308 311 313 315 315 314 314 312 311 310 309 309 308 307 307 305 302 300 300
257 263 271 282 288 294 299 299 298 299 303 306 309 312 314 315 314 313 313 314 313 311 311 310 310 310 310 308 306 305 305 303
269 280 285 290 295 295 296 301 303 302 300 303 308 311 312 314 314 313 313 313 312 312 311 311 310 310 308 308 307 307 306 307
286 291 294 297 297 297 296 297 299 300 302 305 307 308 310 311 311 311 312 311 312 312 312 312 311 310 310 310 310 311 310 309
295 296 296 299 300 299 298 296 298 301 303 304 306 309 309 309 309 310 311 312 312 312 312 311 310 311 312 311 310 310 309 309
294 294 295 295 298 297 297 299 298 299 301 304 307 308 308 309 310 311 311 312 312 311 311 310 311 312 312 310 310 310 311 311
291 295 299 299 301 299 296 295 296 298 301 304 307 308 310 309 309 310 312 312 311 310 311 312 311 311 309 309 311 313 314 314
300 300 301 302 303 301 296 295 298 302 305 306 308 309 308 307 309 311 312 311 310 311 311 311 311 310 310 312 312 313 313 310
299 301 302 302 301 301 303 304 305 306 307 308 309 309 308 309 310 311 311 311 312 311 312 312 314 313 312 313 313 312 309 309
302 302 303 300 302 305 306 306 307 308 308 310 310 310 310 310 309 310 312 312 312 313 313 314 316 317 315 315 313 313 313 314
302 302 302 304 306 307 306 306 308 310 310 311 310 311 310 309 310 311 313 314 314 314 313 314 315 317 311 313 313 312 314 315
302 302 304 307 307 306 306 307 309 311 311 311 311 310 308 308 310 312 313 312 311 311 312 313 313 313 316 315 314 314 314 316
Height
10667 10669 10671 10671 10672 10670 10670 10667 10669 10663 10663 10658 10651 10648 10644 10640 10634 10629 10622 10617 10609 10605 10596 10589 10580 10574 10569 10562 10554 10546 10536 10531
10660 10661 10661 10661 10661 10660 10659 10659 10656 10651 10648 10647 10641 10637 10634 10628 10624 10617 10610 10604 10596 10590 10584 10577 10567 10556 10549 10541 10533 10526 10517 10511
10652 10651 10650 10651 10653 10649 10653 10646 10645 10640 10637 10634 10631 10626 10623 10617 10613 10607 10599 10591 10582 10576 10565 10556 10549 10540 10531 10523 10515 10509 10499 10492
10644 10642 10642 10643 10642 10640 10639 10637 10635 10632 10628 10624 10622 10619 10613 10606 10599 10592 10586 10577 10569 10560 10552 10542 10532 10523 10514 10506 10496 10490 10484 10473
10635 10635 10634 10632 10630 10630 10627 10626 10624 10622 10620 10614 10610 10606 10601 10595 10589 10581 10575 10564 10553 10544 10536 10527 10518 10507 10495 10487 10478 10470 10465 10459
10627 10626 10625 10624 10623 10622 10621 10618 10615 10612 10608 10603 10597 10593 10590 10582 10575 10569 10559 10552 10543 10533 10521 10512 10502 10492 10483 10471 10462 10453 10442 10434
10620 10619 10618 10617 10616 10614 10612 10608 10605 10601 10596 10591 10586 10580 10576 10568 10559 10550 10540 10533 10524 10515 10504 10494 10484 10473 10463 10455 10442 10432 10422 10413
10615 10614 10612 10610 10608 10605 10602 10599 10595 10591 10586 10580 10575 10568 10561 10553 10545 10537 10527 10517 10508 10498 10486 10475 10465 10453 10442 10431 10417 10406 10393 10382
10611 10609 10606 10603 10600 10596 10593 10590 10586 10581 10575 10569 10563 10555 10548 10541 10532 10522 10512 10502 10491 10481 10469 10458 10445 10434 10421 10408 10394 10379 10364 10348
10605 10603 10599 10595 10592 10588 10585 10581 10575 10569 10565 10558 10552 10544 10535 10527 10517 10507 10496 10485 10473 10463 10452 10440 10427 10414 10402 10388 10369 10354 10336 10318
10597 10594 10591 10588 10584 10579 10575 10572 10567 10559 10553 10547 10539 10531 10521 10512 10502 10492 10480 10468 10457 10445 10433 10420 10406 10391 10374 10359 10341 10325 10307 10291
10589 10586 10582 10580 10575 10570 10565 10561 10556 10547 10540 10534 10526 10517 10507 10496 10485 10474 10463 10450 10438 10425 10413 10399 10383 10368 10352 10335 10319 10304 10287 10268
10582 10577 10574 10571 10568 10562 10555 10549 10543 10535 10527 10520 10512 10501 10490 10478 10467 10455 10445 10434 10420 10407 10393 10378 10361 10346 10330 10309 10294 10277 10261 10242
10576 10573 10566 10560 10557 10551 10546 10538 10530 10523 10514 10506 10495 10486 10472 10459 10449 10437 10425 10414 10401 10386 10370 10355 10338 10322 10308 10289 10273 10253 10236 10220
10562 10562 10558 10551 10546 10541 10533 10527 10518 10510 10500 10488 10478 10466 10456 10442 10430 10418 10406 10393 10379 10364 10347 10331 10313 10299 10279 10265 10248 10230 10212 10195
10551 10546 10545 10542 10534 10527 10520 10513 10505 10494 10482 10470 10459 10446 10434 10423 10411 10397 10384 10370 10356 10341 10324 10307 10289 10274 10252 10238 10222 10205 10188 10172
10541 10533 10528 10524 10519 10513 10504 10495 10487 10480 10464 10451 10439 10426 10413 10401 10389 10376 10361 10346 10331 10316 10300 10284 10266 10248 10225 10212 10196 10178 10161 10148
10530 10524 10516 10508 10503 10498 10488 10478 10469 10459 10446 10433 10419 10408 10395 10381 10367 10353 10337 10320 10304 10290 10276 10259 10243 10227 10203 10188 10173 10155 10139 10124
10519 10511 10503 10496 10487 10480 10471 10460 10450 10438 10425 10411 10399 10388 10374 10361 10345 10327 10311 10298 10284 10269 10252 10235 10219 10201 10180 10163 10151 10134 10120 10104